Regional Weather Roundup
Issued by NWS

Home | Current Version | Previous Version | Text Only | Print | Product List | Glossary Off
Versions: 1 2 3 4 5 6 7 8 9 10 11 12 13 14 15 16 17 18 19 20 21 22 23 24 25 26 27 28 29 30 31 32 33 34 35 36 37 38 39 40 41 42 43 44 45 46 47 48 49 50

000
ASUS43 KBIS 291910
RWRND

NORTH DAKOTA REGIONAL WEATHER ROUNDUP
NATIONAL WEATHER SERVICE BISMARCK ND
200 PM CDT FRI JUL 29 2016

NOTE: "FAIR" INDICATES FEW OR NO CLOUDS BELOW 12,000 FEET WITH NO
SIGNIFICANT WEATHER AND/OR OBSTRUCTIONS TO VISIBILITY.


NDZ001>003-009>011-017-292000-
NORTHWEST NORTH DAKOTA

CITY           SKY/WX    TMP DP  RH WIND       PRES   REMARKS
WILLISTON      SUNNY     80  50  34 S6        30.05F
MINOT          LGT RAIN  73  63  70 SE12      30.04F
MINOT AFB      PTSUNNY   75  60  58 SE8       30.03F
$$

NDZ018>021-031>035-040>046-292000-
SOUTHWEST NORTH DAKOTA

CITY           SKY/WX    TMP DP  RH WIND       PRES   REMARKS
BISMARCK       PTSUNNY   79  59  50 CALM      30.06F
DICKINSON      CLOUDY    72  56  57 S8        30.06F
GARRISON         N/A     75  61  61 SW7       30.06F
HETTINGER ARPT MOSUNNY   77  55  46 S9        30.08F
$$

NDZ004>008-012>016-024-026-027-054-292000-
NORTHEAST NORTH DAKOTA

CITY           SKY/WX    TMP DP  RH WIND       PRES   REMARKS
GRAND FORKS    CLOUDY    78  52  40 CALM      30.06S
GRND FRKS AFB  MOSUNNY   76  55  47 VRB2      30.07S
DEVILS LAKE    MOSUNNY   74  59  59 VRB6      30.08F
$$

NDZ022-023-025-028>030-036>039-047>053-292000-
SOUTHEAST NORTH DAKOTA

CITY           SKY/WX    TMP DP  RH WIND       PRES   REMARKS
FARGO          MOSUNNY   79  57  46 MISG      30.06F
JAMESTOWN      MOSUNNY   77  62  59 SE12      30.07F
$$





USA.gov is the U.S. government's official web portal to all federal, state and local government web resources and services.